Station Historical Data
Daily Summary for October 8, 2017 Units:  English    Metric   Both
Next Day »
Daily Weekly Monthly Yearly Custom
  High: Low: Average:
Temperature: 71.7 °F 56.9 °F 63.7 °F
Dew Point: 42.6 °F 17.1 °F 33.6 °F
Humidity: 44% 19% 33%
Wind Speed: 41.0mph 0.0mph 4.1mph
Wind Gust: 53.0mph - -
Wind- - SSE
Pressure: 29.86 in 29.77 in -
Precipitation: 0.00 in    
Historical Graphs
 
 
Tabular Data for October 8, 2017
Time Temperature Dew Point Pressure Wind Wind Speed Wind Gust Humidity Rainfall Rate (Hourly) solar Conditions
00:04 62.5 °F 35.2 °F 29.81 in East 6.0 mph 14.0 mph 36% 0.00 in 0.00 W/m2
00:09 62.5 °F 35.9 °F 29.81 in East 11.0 mph 15.0 mph 37% 0.00 in 0.00 W/m2
00:14 62.5 °F 35.9 °F 29.81 in East 1.0 mph 12.0 mph 37% 0.00 in 0.00 W/m2
00:19 62.5 °F 35.2 °F 29.81 in ESE 7.0 mph 13.0 mph 36% 0.00 in 0.00 W/m2
00:24 62.5 °F 35.2 °F 29.80 in East 11.0 mph 13.0 mph 36% 0.00 in 0.00 W/m2
00:29 62.4 °F 35.8 °F 29.81 in East 11.0 mph 16.0 mph 37% 0.00 in 0.00 W/m2
00:34 62.4 °F 35.8 °F 29.80 in ESE 5.0 mph 11.0 mph 37% 0.00 in 0.00 W/m2
00:39 62.3 °F 35.7 °F 29.80 in East 9.0 mph 16.0 mph 37% 0.00 in 0.00 W/m2
00:44 62.2 °F 35.6 °F 29.81 in East 11.0 mph 13.0 mph 37% 0.00 in 0.00 W/m2
00:49 62.2 °F 35.6 °F 29.81 in ESE 11.0 mph 13.0 mph 37% 0.00 in 0.00 W/m2
00:54 62.1 °F 35.5 °F 29.81 in East 9.0 mph 12.0 mph 37% 0.00 in 0.00 W/m2
00:59 62.0 °F 34.8 °F 29.81 in ESE 7.0 mph 9.0 mph 36% 0.00 in 0.00 W/m2
01:04 62.0 °F 35.5 °F 29.80 in East 4.0 mph 13.0 mph 37% 0.00 in 0.00 W/m2
01:14 61.9 °F 35.4 °F 29.80 in East 5.0 mph 12.0 mph 37% 0.00 in 0.00 W/m2
01:19 61.9 °F 35.4 °F 29.80 in ESE 6.0 mph 13.0 mph 37% 0.00 in 0.00 W/m2
01:24 61.9 °F 35.4 °F 29.80 in ESE 6.0 mph 13.0 mph 37% 0.00 in 0.00 W/m2
01:29 61.9 °F 35.4 °F 29.80 in East 9.0 mph 13.0 mph 37% 0.00 in 0.00 W/m2
01:34 61.8 °F 35.3 °F 29.80 in Calm   12.0 mph 37% 0.00 in 0.00 W/m2
01:39 61.8 °F 35.3 °F 29.80 in Calm   15.0 mph 37% 0.00 in 0.00 W/m2
01:44 61.8 °F 35.3 °F 29.80 in ESE 5.0 mph 12.0 mph 37% 0.00 in 0.00 W/m2
01:49 61.7 °F 35.2 °F 29.80 in Calm   9.0 mph 37% 0.00 in 0.00 W/m2
01:54 61.6 °F 35.1 °F 29.80 in ESE 2.0 mph 11.0 mph 37% 0.00 in 0.00 W/m2
01:59 61.5 °F 35.0 °F 29.80 in Calm   12.0 mph 37% 0.00 in 0.00 W/m2
02:04 61.4 °F 34.9 °F 29.80 in Calm   11.0 mph 37% 0.00 in 0.00 W/m2
02:09 61.4 °F 34.9 °F 29.80 in East 6.0 mph 11.0 mph 37% 0.00 in 0.00 W/m2
02:14 61.3 °F 34.8 °F 29.80 in East 6.0 mph 8.0 mph 37% 0.00 in 0.00 W/m2
02:19 61.2 °F 34.7 °F 29.80 in Calm   8.0 mph 37% 0.00 in 0.00 W/m2
02:24 61.1 °F 34.7 °F 29.80 in East 7.0 mph 8.0 mph 37% 0.00 in 0.00 W/m2
02:29 61.1 °F 34.7 °F 29.80 in Calm   8.0 mph 37% 0.00 in 0.00 W/m2
02:35 61.0 °F 34.6 °F 29.80 in Calm   6.0 mph 37% 0.00 in 0.00 W/m2
02:40 60.9 °F 34.5 °F 29.80 in Calm   6.0 mph 37% 0.00 in 0.00 W/m2
02:45 60.9 °F 34.5 °F 29.80 in Calm   8.0 mph 37% 0.00 in 0.00 W/m2
02:50 60.8 °F 34.4 °F 29.80 in Calm   7.0 mph 37% 0.00 in 0.00 W/m2
02:55 60.8 °F 34.4 °F 29.79 in Calm   5.0 mph 37% 0.00 in 0.00 W/m2
03:00 60.7 °F 34.3 °F 29.79 in Calm   6.0 mph 37% 0.00 in 0.00 W/m2
03:05 60.6 °F 34.2 °F 29.79 in ESE 4.0 mph 7.0 mph 37% 0.00 in 0.00 W/m2
03:10 60.5 °F 34.1 °F 29.79 in ESE 2.0 mph 2.0 mph 37% 0.00 in 0.00 W/m2
03:15 60.4 °F 34.0 °F 29.79 in ESE 2.0 mph 7.0 mph 37% 0.00 in 0.00 W/m2
03:20 60.4 °F 34.0 °F 29.78 in ESE 6.0 mph 8.0 mph 37% 0.00 in 0.00 W/m2
03:25 60.3 °F 33.9 °F 29.79 in ESE 5.0 mph 9.0 mph 37% 0.00 in 0.00 W/m2
03:30 60.2 °F 33.8 °F 29.79 in ESE 4.0 mph 6.0 mph 37% 0.00 in 0.00 W/m2
03:35 60.1 °F 33.8 °F 29.79 in Calm   7.0 mph 37% 0.00 in 0.00 W/m2
03:40 60.0 °F 33.7 °F 29.78 in Calm   6.0 mph 37% 0.00 in 0.00 W/m2
03:50 59.8 °F 33.5 °F 29.78 in ESE 1.0 mph 5.0 mph 37% 0.00 in 0.00 W/m2
03:55 59.7 °F 33.4 °F 29.78 in Calm   6.0 mph 37% 0.00 in 0.00 W/m2
04:00 59.6 °F 33.3 °F 29.78 in Calm   6.0 mph 37% 0.00 in 0.00 W/m2
04:05 59.5 °F 33.2 °F 29.78 in Calm   7.0 mph 37% 0.00 in 0.00 W/m2
04:10 59.4 °F 33.8 °F 29.78 in Calm   6.0 mph 38% 0.00 in 0.00 W/m2
04:15 59.3 °F 33.7 °F 29.78 in Calm   6.0 mph 38% 0.00 in 0.00 W/m2
04:20 59.1 °F 33.5 °F 29.78 in Calm   4.0 mph 38% 0.00 in 0.00 W/m2
04:22 59.1 °F 32.9 °F 29.78 in Calm     37% 0.00 in 0.00 W/m2
04:27 59.0 °F 33.5 °F 29.77 in Calm     38% 0.00 in 0.00 W/m2
04:32 58.9 °F 33.4 °F 29.78 in ESE 1.0 mph 4.0 mph 38% 0.00 in 0.00 W/m2
04:37 58.8 °F 33.3 °F 29.78 in ESE 2.0 mph 2.0 mph 38% 0.00 in 0.00 W/m2
04:43 58.7 °F 33.2 °F 29.78 in Calm   5.0 mph 38% 0.00 in 0.00 W/m2
04:48 58.5 °F 33.0 °F 29.78 in ESE 1.0 mph 2.0 mph 38% 0.00 in 0.00 W/m2
04:52 58.5 °F 33.0 °F 29.77 in Calm   4.0 mph 38% 0.00 in 0.00 W/m2
04:57 58.4 °F 32.9 °F 29.78 in Calm   5.0 mph 38% 0.00 in 0.00 W/m2
05:02 58.3 °F 32.8 °F 29.77 in Calm   6.0 mph 38% 0.00 in 0.00 W/m2
05:07 58.2 °F 33.4 °F 29.78 in Calm   5.0 mph 39% 0.00 in 0.00 W/m2
05:18 58.0 °F 32.6 °F 29.77 in Calm   5.0 mph 38% 0.00 in 0.00 W/m2
05:28 57.9 °F 32.5 °F 29.77 in Calm   11.0 mph 38% 0.00 in 0.00 W/m2
05:33 57.9 °F 32.5 °F 29.77 in ESE 2.0 mph 13.0 mph 38% 0.00 in 0.00 W/m2
05:43 57.8 °F 31.7 °F 29.78 in East 1.0 mph 8.0 mph 37% 0.00 in 0.00 W/m2
05:48 57.8 °F 31.7 °F 29.78 in East 2.0 mph 8.0 mph 37% 0.00 in 0.00 W/m2
05:58 57.8 °F 31.7 °F 29.78 in Calm   6.0 mph 37% 0.00 in 0.00 W/m2
06:08 57.7 °F 31.6 °F 29.79 in East 4.0 mph 8.0 mph 37% 0.00 in 0.00 W/m2
06:13 57.7 °F 31.6 °F 29.79 in Calm   5.0 mph 37% 0.00 in 0.00 W/m2
06:18 57.7 °F 31.6 °F 29.79 in East 4.0 mph 4.0 mph 37% 0.00 in 0.00 W/m2
06:23 57.7 °F 31.6 °F 29.79 in Calm   4.0 mph 37% 0.00 in 0.00 W/m2
06:28 57.6 °F 31.5 °F 29.80 in Calm   5.0 mph 37% 0.00 in 0.00 W/m2
06:33 57.6 °F 31.5 °F 29.79 in Calm   4.0 mph 37% 0.00 in 0.00 W/m2
06:38 57.5 °F 32.1 °F 29.80 in Calm     38% 0.00 in 0.00 W/m2
06:43 57.5 °F 31.5 °F 29.80 in Calm   6.0 mph 37% 0.00 in 0.00 W/m2
06:53 57.4 °F 31.4 °F 29.80 in Calm     37% 0.00 in 0.00 W/m2
06:58 57.4 °F 31.4 °F 29.80 in East 1.0 mph 6.0 mph 37% 0.00 in 0.00 W/m2
07:03 57.3 °F 31.3 °F 29.80 in Calm   7.0 mph 37% 0.00 in 5.00 W/m2
07:08 57.3 °F 31.3 °F 29.80 in Calm   6.0 mph 37% 0.00 in 7.00 W/m2
07:13 57.3 °F 31.3 °F 29.80 in East 1.0 mph 5.0 mph 37% 0.00 in 11.00 W/m2
07:18 57.2 °F 31.2 °F 29.80 in East 4.0 mph 6.0 mph 37% 0.00 in 14.00 W/m2
07:23 57.2 °F 31.2 °F 29.80 in Calm   5.0 mph 37% 0.00 in 16.00 W/m2
07:28 57.1 °F 31.1 °F 29.80 in East 4.0 mph 6.0 mph 37% 0.00 in 19.00 W/m2
07:33 57.1 °F 31.1 °F 29.80 in Calm   9.0 mph 37% 0.00 in 28.00 W/m2
07:38 57.0 °F 31.7 °F 29.79 in ESE 4.0 mph 9.0 mph 38% 0.00 in 40.00 W/m2
07:43 57.0 °F 31.0 °F 29.79 in Calm   8.0 mph 37% 0.00 in 54.00 W/m2
07:48 56.9 °F 31.6 °F 29.79 in ESE 4.0 mph 9.0 mph 38% 0.00 in 69.00 W/m2
07:53 56.9 °F 31.6 °F 29.79 in ESE 2.0 mph 8.0 mph 38% 0.00 in 86.00 W/m2
07:58 57.0 °F 31.7 °F 29.79 in ESE 1.0 mph 7.0 mph 38% 0.00 in 102.00 W/m2
08:03 57.0 °F 31.7 °F 29.79 in ESE 2.0 mph 8.0 mph 38% 0.00 in 120.00 W/m2
08:08 57.0 °F 31.7 °F 29.79 in Calm   8.0 mph 38% 0.00 in 139.00 W/m2
08:13 57.1 °F 31.8 °F 29.79 in Calm   9.0 mph 38% 0.00 in 160.00 W/m2
08:18 57.2 °F 32.5 °F 29.79 in ESE 2.0 mph 7.0 mph 39% 0.00 in 179.00 W/m2
08:23 57.2 °F 32.5 °F 29.79 in ESE 4.0 mph 7.0 mph 39% 0.00 in 200.00 W/m2
08:24 57.3 °F 32.6 °F 29.79 in ESE 4.0 mph 7.0 mph 39% 0.00 in 204.00 W/m2
08:29 57.3 °F 32.6 °F 29.79 in ESE 7.0 mph 9.0 mph 39% 0.00 in 221.00 W/m2
08:34 57.5 °F 32.8 °F 29.80 in Calm   7.0 mph 39% 0.00 in 244.00 W/m2
08:39 57.6 °F 32.8 °F 29.80 in ESE 5.0 mph 6.0 mph 39% 0.00 in 264.00 W/m2
08:44 57.8 °F 33.0 °F 29.80 in Calm   2.0 mph 39% 0.00 in 285.00 W/m2
08:49 58.0 °F 33.8 °F 29.80 in Calm   2.0 mph 40% 0.00 in 302.00 W/m2
08:54 58.2 °F 34.0 °F 29.79 in Calm   1.0 mph 40% 0.00 in 320.00 W/m2
08:59 58.4 °F 34.8 °F 29.79 in Calm     41% 0.00 in 336.00 W/m2
09:04 58.6 °F 35.0 °F 29.80 in Calm     41% 0.00 in 350.00 W/m2
09:09 59.0 °F 35.3 °F 29.80 in Calm     41% 0.00 in 366.00 W/m2
09:14 59.2 °F 36.1 °F 29.80 in Calm   1.0 mph 42% 0.00 in 380.00 W/m2
09:19 59.6 °F 37.1 °F 29.81 in Calm   4.0 mph 43% 0.00 in 394.00 W/m2
09:24 59.8 °F 37.9 °F 29.81 in Calm   2.0 mph 44% 0.00 in 408.00 W/m2
09:29 60.0 °F 38.0 °F 29.81 in Calm     44% 0.00 in 422.00 W/m2
09:34 60.4 °F 37.2 °F 29.81 in Calm   1.0 mph 42% 0.00 in 438.00 W/m2
09:39 60.9 °F 37.1 °F 29.81 in ESE 4.0 mph 4.0 mph 41% 0.00 in 452.00 W/m2
09:44 61.5 °F 37.6 °F 29.81 in ENE 2.0 mph 6.0 mph 41% 0.00 in 466.00 W/m2
09:49 61.9 °F 37.3 °F 29.81 in Calm   3.0 mph 40% 0.00 in 480.00 W/m2
09:54 62.2 °F 38.2 °F 29.81 in Calm   2.0 mph 41% 0.00 in 492.00 W/m2
10:00 62.5 °F 37.2 °F 29.80 in Calm   3.0 mph 39% 0.00 in 504.00 W/m2
10:05 62.9 °F 36.2 °F 29.81 in ENE 2.0 mph 3.0 mph 37% 0.00 in 517.00 W/m2
10:10 63.3 °F 35.2 °F 29.81 in Calm   3.0 mph 35% 0.00 in 529.00 W/m2
10:15 63.8 °F 34.9 °F 29.80 in Calm   5.0 mph 34% 0.00 in 540.00 W/m2
10:20 64.2 °F 35.3 °F 29.80 in NE 2.0 mph 2.0 mph 34% 0.00 in 554.00 W/m2
10:25 64.5 °F 36.3 °F 29.80 in Calm   2.0 mph 35% 0.00 in 564.00 W/m2
10:30 64.9 °F 37.3 °F 29.80 in NE 4.0 mph 4.0 mph 36% 0.00 in 577.00 W/m2
10:35 65.2 °F 37.6 °F 29.80 in North 2.0 mph 6.0 mph 36% 0.00 in 585.00 W/m2
10:40 65.6 °F 37.2 °F 29.80 in Calm   4.0 mph 35% 0.00 in 596.00 W/m2
10:45 66.0 °F 37.6 °F 29.80 in Calm   4.0 mph 35% 0.00 in 603.00 W/m2
10:50 66.3 °F 38.6 °F 29.80 in Calm   6.0 mph 36% 0.00 in 613.00 W/m2
10:55 66.7 °F 36.7 °F 29.80 in NNW 4.0 mph 5.0 mph 33% 0.00 in 626.00 W/m2
11:00 67.2 °F 36.4 °F 29.80 in NNW 2.0 mph 6.0 mph 32% 0.00 in 635.00 W/m2
11:05 67.9 °F 37.0 °F 29.80 in NW 5.0 mph 7.0 mph 32% 0.00 in 643.00 W/m2
11:10 68.3 °F 36.5 °F 29.80 in Calm   7.0 mph 31% 0.00 in 652.00 W/m2
11:15 68.6 °F 37.6 °F 29.80 in Calm   6.0 mph 32% 0.00 in 661.00 W/m2
11:20 68.9 °F 37.8 °F 29.81 in NW 3.0 mph 7.0 mph 32% 0.00 in 668.00 W/m2
11:25 69.2 °F 38.9 °F 29.81 in WNW 6.0 mph 7.0 mph 33% 0.00 in 671.00 W/m2
11:30 69.1 °F 38.8 °F 29.81 in Calm   9.0 mph 33% 0.00 in 679.00 W/m2
11:35 69.2 °F 39.7 °F 29.81 in WNW 1.0 mph 6.0 mph 34% 0.00 in 686.00 W/m2
11:40 69.2 °F 39.7 °F 29.81 in West 1.0 mph 5.0 mph 34% 0.00 in 691.00 W/m2
11:45 69.1 °F 38.8 °F 29.81 in WNW 3.0 mph 7.0 mph 33% 0.00 in 698.00 W/m2
11:50 69.0 °F 39.5 °F 29.81 in WNW 3.0 mph 7.0 mph 34% 0.00 in 703.00 W/m2
11:55 69.1 °F 39.6 °F 29.81 in WNW 1.0 mph 6.0 mph 34% 0.00 in 707.00 W/m2
12:00 69.2 °F 39.7 °F 29.81 in WNW 1.0 mph 7.0 mph 34% 0.00 in 714.00 W/m2
12:03 69.3 °F 39.8 °F 29.81 in NW 2.0 mph 5.0 mph 34% 0.00 in 715.00 W/m2
12:08 69.6 °F 39.2 °F 29.82 in WNW 1.0 mph 6.0 mph 33% 0.00 in 719.00 W/m2
12:13 69.7 °F 40.1 °F 29.81 in WNW 4.0 mph 4.0 mph 34% 0.00 in 724.00 W/m2
12:18 69.9 °F 40.3 °F 29.81 in West 2.0 mph 6.0 mph 34% 0.00 in 726.00 W/m2
12:23 70.1 °F 40.5 °F 29.81 in Calm   3.0 mph 34% 0.00 in 728.00 W/m2
12:25 70.2 °F 40.5 °F 29.81 in West 4.0 mph 6.0 mph 34% 0.00 in 731.00 W/m2
12:30 70.3 °F 40.6 °F 29.80 in Calm   10.0 mph 34% 0.00 in 731.00 W/m2
12:35 70.4 °F 40.7 °F 29.80 in Calm   6.0 mph 34% 0.00 in 735.00 W/m2
12:40 70.6 °F 40.9 °F 29.80 in Calm   8.0 mph 34% 0.00 in 735.00 W/m2
12:45 70.9 °F 41.9 °F 29.80 in WNW 4.0 mph 7.0 mph 35% 0.00 in 733.00 W/m2
12:50 70.9 °F 41.2 °F 29.80 in NW 7.0 mph 8.0 mph 34% 0.00 in 731.00 W/m2
13:00 70.9 °F 41.9 °F 29.80 in Calm   8.0 mph 35% 0.00 in 731.00 W/m2
13:05 70.9 °F 41.9 °F 29.80 in Calm   7.0 mph 35% 0.00 in 731.00 W/m2
13:15 70.8 °F 41.8 °F 29.80 in NW 6.0 mph 11.0 mph 35% 0.00 in 728.00 W/m2
13:20 70.7 °F 41.7 °F 29.80 in Calm   12.0 mph 35% 0.00 in 722.00 W/m2
13:30 70.9 °F 42.6 °F 29.80 in Calm   10.0 mph 36% 0.00 in 717.00 W/m2
13:31 70.9 °F 41.9 °F 29.79 in NW 6.0 mph 6.0 mph 35% 0.00 in 714.00 W/m2
13:36 71.0 °F 41.2 °F 29.79 in Calm   3.0 mph 34% 0.00 in 708.00 W/m2
13:41 70.9 °F 41.9 °F 29.79 in West 1.0 mph 7.0 mph 35% 0.00 in 707.00 W/m2
13:46 70.8 °F 41.1 °F 29.79 in WNW 4.0 mph 10.0 mph 34% 0.00 in 703.00 W/m2
13:51 70.7 °F 40.2 °F 29.79 in NW 3.0 mph 7.0 mph 33% 0.00 in 698.00 W/m2
13:57 70.7 °F 41.0 °F 29.78 in Calm   4.0 mph 34% 0.00 in 693.00 W/m2
14:07 71.1 °F 41.3 °F 29.78 in West 3.0 mph 9.0 mph 34% 0.00 in 677.00 W/m2
14:12 71.3 °F 40.7 °F 29.78 in Calm   8.0 mph 33% 0.00 in 670.00 W/m2
14:17 71.4 °F 40.0 °F 29.78 in Calm   7.0 mph 32% 0.00 in 664.00 W/m2
14:22 71.4 °F 40.0 °F 29.78 in Calm   5.0 mph 32% 0.00 in 654.00 W/m2
14:27 71.5 °F 40.1 °F 29.78 in Calm   3.0 mph 32% 0.00 in 643.00 W/m2
14:32 71.5 °F 40.1 °F 29.78 in WNW 3.0 mph 3.0 mph 32% 0.00 in 638.00 W/m2
14:37 71.6 °F 39.4 °F 29.78 in WNW 1.0 mph 7.0 mph 31% 0.00 in 631.00 W/m2
14:42 71.6 °F 39.4 °F 29.78 in WNW 7.0 mph 8.0 mph 31% 0.00 in 622.00 W/m2
14:47 71.6 °F 39.4 °F 29.78 in West 1.0 mph 7.0 mph 31% 0.00 in 598.00 W/m2
14:52 71.7 °F 39.5 °F 29.78 in WNW 5.0 mph 6.0 mph 31% 0.00 in 596.00 W/m2
14:57 71.6 °F 39.4 °F 29.78 in WNW 1.0 mph 6.0 mph 31% 0.00 in 573.00 W/m2
15:02 71.3 °F 38.3 °F 29.78 in WNW 5.0 mph 6.0 mph 30% 0.00 in 580.00 W/m2
15:07 71.3 °F 39.1 °F 29.78 in Calm   10.0 mph 31% 0.00 in 570.00 W/m2
15:12 71.4 °F 38.4 °F 29.78 in Calm   1.0 mph 30% 0.00 in 559.00 W/m2
15:17 71.5 °F 38.5 °F 29.78 in NNW 5.0 mph 8.0 mph 30% 0.00 in 548.00 W/m2
15:22 71.5 °F 38.5 °F 29.78 in Calm   1.0 mph 30% 0.00 in 538.00 W/m2
15:27 71.5 °F 37.6 °F 29.78 in Calm   5.0 mph 29% 0.00 in 524.00 W/m2
15:32 71.5 °F 37.6 °F 29.78 in WSW 2.0 mph 7.0 mph 29% 0.00 in 513.00 W/m2
15:37 71.6 °F 37.7 °F 29.78 in Calm   3.0 mph 29% 0.00 in 499.00 W/m2
15:42 71.6 °F 38.6 °F 29.78 in West 2.0 mph 2.0 mph 30% 0.00 in 483.00 W/m2
15:47 71.6 °F 37.7 °F 29.78 in Calm     29% 0.00 in 464.00 W/m2
15:49 71.6 °F 37.7 °F 29.78 in Calm   6.0 mph 29% 0.00 in 459.00 W/m2
15:54 71.7 °F 38.6 °F 29.78 in Calm   12.0 mph 30% 0.00 in 446.00 W/m2
15:59 71.6 °F 37.7 °F 29.78 in NW 6.0 mph 8.0 mph 29% 0.00 in 429.00 W/m2
16:09 71.3 °F 36.5 °F 29.78 in West 2.0 mph 11.0 mph 28% 0.00 in 404.00 W/m2
16:14 71.3 °F 36.5 °F 29.78 in West 5.0 mph 7.0 mph 28% 0.00 in 388.00 W/m2
16:19 71.2 °F 36.5 °F 29.78 in Calm   9.0 mph 28% 0.00 in 374.00 W/m2
16:24 71.1 °F 36.4 °F 29.78 in West 2.0 mph 9.0 mph 28% 0.00 in 357.00 W/m2
16:29 71.0 °F 35.4 °F 29.78 in Calm   5.0 mph 27% 0.00 in 341.00 W/m2
16:34 70.9 °F 36.2 °F 29.77 in WNW 4.0 mph 5.0 mph 28% 0.00 in 332.00 W/m2
16:39 70.8 °F 36.1 °F 29.78 in Calm   8.0 mph 28% 0.00 in 316.00 W/m2
16:44 70.8 °F 35.2 °F 29.78 in Calm   1.0 mph 27% 0.00 in 301.00 W/m2
16:49 70.7 °F 36.0 °F 29.78 in Calm   2.0 mph 28% 0.00 in 285.00 W/m2
16:54 70.7 °F 36.9 °F 29.78 in Calm   3.0 mph 29% 0.00 in 267.00 W/m2
16:59 70.6 °F 36.8 °F 29.78 in Calm   1.0 mph 29% 0.00 in 251.00 W/m2
17:04 70.4 °F 35.8 °F 29.78 in Calm   2.0 mph 28% 0.00 in 232.00 W/m2
17:10 70.3 °F 35.7 °F 29.78 in Calm   4.0 mph 28% 0.00 in 218.00 W/m2
17:15 70.3 °F 36.6 °F 29.78 in Calm     29% 0.00 in 199.00 W/m2
17:20 70.2 °F 36.5 °F 29.78 in Calm   1.0 mph 29% 0.00 in 181.00 W/m2
17:25 70.1 °F 35.5 °F 29.78 in Calm     28% 0.00 in 162.00 W/m2
17:30 70.0 °F 35.4 °F 29.78 in Calm   1.0 mph 28% 0.00 in 144.00 W/m2
17:35 69.9 °F 36.2 °F 29.78 in Calm     29% 0.00 in 125.00 W/m2
17:40 69.8 °F 37.0 °F 29.78 in Calm     30% 0.00 in 109.00 W/m2
17:45 69.7 °F 36.9 °F 29.78 in Calm     30% 0.00 in 91.00 W/m2
17:50 69.6 °F 37.7 °F 29.78 in Calm     31% 0.00 in 76.00 W/m2
18:00 68.8 °F 37.0 °F 29.78 in Calm     31% 0.00 in 49.00 W/m2
18:05 68.3 °F 37.3 °F 29.79 in Calm     32% 0.00 in 37.00 W/m2
18:10 67.9 °F 38.5 °F 29.79 in Calm     34% 0.00 in 30.00 W/m2
18:15 67.4 °F 38.8 °F 29.79 in Calm     35% 0.00 in 23.00 W/m2
18:20 66.8 °F 39.0 °F 29.79 in Calm     36% 0.00 in 19.00 W/m2
18:25 66.1 °F 38.4 °F 29.79 in Calm   4.0 mph 36% 0.00 in 14.00 W/m2
18:30 65.8 °F 38.1 °F 29.80 in Calm     36% 0.00 in 12.00 W/m2
18:35 65.5 °F 37.9 °F 29.80 in Calm   1.0 mph 36% 0.00 in 9.00 W/m2
18:40 65.2 °F 37.6 °F 29.80 in West 3.0 mph 6.0 mph 36% 0.00 in 5.00 W/m2
18:45 64.9 °F 38.0 °F 29.80 in Calm   5.0 mph 37% 0.00 in 0.00 W/m2
18:50 64.6 °F 37.8 °F 29.80 in Calm   10.0 mph 37% 0.00 in 0.00 W/m2
18:55 64.4 °F 37.6 °F 29.80 in Calm   14.0 mph 37% 0.00 in 0.00 W/m2
19:00 64.2 °F 36.7 °F 29.80 in ENE 5.0 mph 10.0 mph 36% 0.00 in 0.00 W/m2
19:05 64.1 °F 36.6 °F 29.81 in East 12.0 mph 14.0 mph 36% 0.00 in 0.00 W/m2
19:10 64.1 °F 35.2 °F 29.81 in East 12.0 mph 18.0 mph 34% 0.00 in 0.00 W/m2
19:15 64.1 °F 35.9 °F 29.81 in East 13.0 mph 14.0 mph 35% 0.00 in 0.00 W/m2
19:20 64.1 °F 35.2 °F 29.81 in East 2.0 mph 13.0 mph 34% 0.00 in 0.00 W/m2
19:26 64.0 °F 32.8 °F 29.81 in ENE 8.0 mph 14.0 mph 31% 0.00 in 0.00 W/m2
19:31 64.1 °F 32.9 °F 29.81 in NE 2.0 mph 13.0 mph 31% 0.00 in 0.00 W/m2
19:35 64.0 °F 32.0 °F 29.81 in East 4.0 mph 20.0 mph 30% 0.00 in 0.00 W/m2
19:41 64.0 °F 31.1 °F 29.81 in ENE 10.0 mph 21.0 mph 29% 0.00 in 0.00 W/m2
19:46 63.9 °F 31.0 °F 29.81 in ENE 5.0 mph 19.0 mph 29% 0.00 in 0.00 W/m2
19:51 63.9 °F 30.2 °F 29.81 in East 4.0 mph 21.0 mph 28% 0.00 in 0.00 W/m2
19:56 63.8 °F 30.1 °F 29.82 in ENE 1.0 mph 26.0 mph 28% 0.00 in 0.00 W/m2
20:01 63.7 °F 30.0 °F 29.81 in East 20.0 mph 25.0 mph 28% 0.00 in 0.00 W/m2
20:06 63.6 °F 29.0 °F 29.82 in ENE 1.0 mph 10.0 mph 27% 0.00 in 0.00 W/m2
20:11 63.5 °F 29.0 °F 29.82 in ENE 12.0 mph 24.0 mph 27% 0.00 in 0.00 W/m2
20:16 63.4 °F 28.9 °F 29.82 in Calm   1.0 mph 27% 0.00 in 0.00 W/m2
20:20 63.3 °F 27.9 °F 29.82 in ESE 5.0 mph 17.0 mph 26% 0.00 in 0.00 W/m2
20:23 63.2 °F 27.8 °F 29.82 in East 3.0 mph 28.0 mph 26% 0.00 in 0.00 W/m2
20:25 63.2 °F 27.8 °F 29.82 in East 21.0 mph 34.0 mph 26% 0.00 in 0.00 W/m2
20:26 63.1 °F 27.7 °F 29.82 in East 2.0 mph 22.0 mph 26% 0.00 in 0.00 W/m2
20:32 63.0 °F 27.6 °F 29.82 in East 19.0 mph 32.0 mph 26% 0.00 in 0.00 W/m2
20:34 63.0 °F 27.6 °F 29.82 in SE 9.0 mph 32.0 mph 26% 0.00 in 0.00 W/m2
20:37 62.9 °F 27.5 °F 29.82 in ENE 1.0 mph 27.0 mph 26% 0.00 in 0.00 W/m2
20:47 62.7 °F 26.4 °F 29.83 in ESE 2.0 mph 20.0 mph 25% 0.00 in 0.00 W/m2
20:52 62.5 °F 27.2 °F 29.82 in ESE 9.0 mph 34.0 mph 26% 0.00 in 0.00 W/m2
20:57 62.4 °F 26.1 °F 29.83 in ESE 28.0 mph 28.0 mph 25% 0.00 in 0.00 W/m2
21:02 62.3 °F 26.1 °F 29.83 in ESE 4.0 mph 24.0 mph 25% 0.00 in 0.00 W/m2
21:07 62.2 °F 26.0 °F 29.83 in East 3.0 mph 40.0 mph 25% 0.00 in 0.00 W/m2
21:12 62.0 °F 24.8 °F 29.83 in East 20.0 mph 28.0 mph 24% 0.00 in 0.00 W/m2
21:17 61.9 °F 24.7 °F 29.83 in East 21.0 mph 43.0 mph 24% 0.00 in 0.00 W/m2
21:27 61.6 °F 24.5 °F 29.84 in East 16.0 mph 31.0 mph 24% 0.00 in 0.00 W/m2
21:33 61.5 °F 23.4 °F 29.84 in Calm   28.0 mph 23% 0.00 in 0.00 W/m2
21:38 61.4 °F 23.3 °F 29.84 in ENE 12.0 mph 35.0 mph 23% 0.00 in 0.00 W/m2
21:43 61.3 °F 23.2 °F 29.85 in East 18.0 mph 24.0 mph 23% 0.00 in 0.00 W/m2
21:48 61.2 °F 23.1 °F 29.84 in SSE 13.0 mph 35.0 mph 23% 0.00 in 0.00 W/m2
21:53 61.0 °F 23.0 °F 29.85 in East 12.0 mph 37.0 mph 23% 0.00 in 0.00 W/m2
21:58 60.9 °F 21.8 °F 29.85 in ESE 14.0 mph 33.0 mph 22% 0.00 in 0.00 W/m2
22:03 60.8 °F 21.7 °F 29.85 in East 23.0 mph 34.0 mph 22% 0.00 in 0.00 W/m2
22:08 60.7 °F 20.6 °F 29.85 in ESE 21.0 mph 27.0 mph 21% 0.00 in 0.00 W/m2
22:13 60.7 °F 20.6 °F 29.86 in ESE 14.0 mph 25.0 mph 21% 0.00 in 0.00 W/m2
22:18 60.7 °F 19.4 °F 29.86 in East 23.0 mph 36.0 mph 20% 0.00 in 0.00 W/m2
22:23 60.6 °F 19.3 °F 29.86 in East 9.0 mph 29.0 mph 20% 0.00 in 0.00 W/m2
22:28 60.5 °F 20.4 °F 29.86 in SE 6.0 mph 27.0 mph 21% 0.00 in 0.00 W/m2
22:33 60.5 °F 19.2 °F 29.86 in East 1.0 mph 28.0 mph 20% 0.00 in 0.00 W/m2
22:38 60.4 °F 20.3 °F 29.86 in ENE 7.0 mph 32.0 mph 21% 0.00 in 0.00 W/m2
22:43 60.4 °F 20.3 °F 29.86 in East 7.0 mph 20.0 mph 21% 0.00 in 0.00 W/m2
22:48 60.2 °F 20.1 °F 29.86 in ENE 2.0 mph 27.0 mph 21% 0.00 in 0.00 W/m2
22:53 60.2 °F 20.1 °F 29.86 in ESE 29.0 mph 38.0 mph 21% 0.00 in 0.00 W/m2
22:58 60.1 °F 20.1 °F 29.85 in ESE 32.0 mph 35.0 mph 21% 0.00 in 0.00 W/m2
23:03 60.1 °F 20.1 °F 29.85 in ESE 30.0 mph 46.0 mph 21% 0.00 in 0.00 W/m2
23:08 60.1 °F 18.9 °F 29.86 in ENE 5.0 mph 34.0 mph 20% 0.00 in 0.00 W/m2
23:13 60.1 °F 18.9 °F 29.85 in ENE 14.0 mph 46.0 mph 20% 0.00 in 0.00 W/m2
23:18 60.1 °F 18.9 °F 29.86 in East 21.0 mph 40.0 mph 20% 0.00 in 0.00 W/m2
23:28 59.8 °F 18.7 °F 29.85 in East 23.0 mph 35.0 mph 20% 0.00 in 0.00 W/m2
23:33 59.8 °F 18.7 °F 29.85 in ESE 28.0 mph 53.0 mph 20% 0.00 in 0.00 W/m2
23:38 59.7 °F 18.6 °F 29.85 in East 10.0 mph 37.0 mph 20% 0.00 in 0.00 W/m2
23:43 59.7 °F 18.6 °F 29.85 in SE 21.0 mph 37.0 mph 20% 0.00 in 0.00 W/m2
23:48 59.5 °F 18.4 °F 29.85 in East 8.0 mph 46.0 mph 20% 0.00 in 0.00 W/m2
23:53 59.4 °F 17.1 °F 29.85 in East 41.0 mph 44.0 mph 19% 0.00 in 0.00 W/m2
23:58 59.4 °F 17.1 °F 29.86 in East 21.0 mph 31.0 mph 19% 0.00 in 0.00 W/m2
Foresthill Weather
 WU-history PHP script courtesy of   Juneau County Weather.
powered by Cumulus v1.9.3 (1059)
Ambient Weather VWS v14.00
Top Contact Website Map Copyright © 2007 - 2018 Foresthillweather.com Never base important decisions on this or any weather information obtained from the Internet